Hourly Data Report for October 21, 2016

All times are specified in Local Standard Time (LST). Add 1 hour to adjust for Daylight Saving Time where and when it is observed.

KAMLOOPS A
BRITISH COLUMBIA

50°42'09.000" N
120°26'55.000" W
345.30 m
1163781
71887
YKA

Download Data

Hourly Data (October 2016)
Hourly Data Report for October 21, 2016
Temp Definition
°C
Dew Point Temp Definition
°C
Rel Hum Definition
%
Wind Dir Definition
10's deg

Wind Spd Definition
km/h
Visibility Definition
km
Stn Press Definition
kPa
Hmdx Definition


Wind Chill Definition


Weather Definition


TIME
00:00 Legend Double Dagger 6.9 1.8 70 22 3 64.4 97.54     LegendNANA
01:00 Legend Double Dagger 5.1 1.6 78 9 5 64.4 97.57     Mostly Cloudy
02:00 Legend Double Dagger 5.8 2.8 81 10 13 64.4 97.60     LegendNANA
03:00 Legend Double Dagger 5.9 3.1 82 11 18 64.4 97.59     LegendNANA
04:00 Legend Double Dagger 5.9 2.9 81 11 19 64.4 97.58     Mostly Cloudy
05:00 Legend Double Dagger 5.3 2.8 84 11 11 64.4 97.58     LegendNANA
06:00 Legend Double Dagger 5.1 2.6 84 11 17 64.4 97.55     LegendNANA
07:00 Legend Double Dagger 5.0 2.5 84 9 15 64.4 97.55     Mostly Cloudy
08:00 Legend Double Dagger 5.8 3.0 82 10 16 64.4 97.52     LegendNANA
09:00 Legend Double Dagger 7.9 3.4 73 9 16 64.4 97.44     LegendNANA
10:00 Legend Double Dagger 9.6 2.5 61 11 14 64.4 97.37     Mostly Cloudy
11:00 Legend Double Dagger 11.9 2.7 53 11 14 64.4 97.27     LegendNANA
12:00 Legend Double Dagger 14.2 1.9 43 9 30 64.4 97.17     LegendNANA
13:00 Legend Double Dagger 15.2 0.3 36 12 24 64.4 97.08     Mostly Cloudy
14:00 Legend Double Dagger 14.2 -0.6 36 13 18 64.4 97.05     LegendNANA
15:00 Legend Double Dagger 12.7 2.9 51 10 23 64.4 97.01     LegendNANA
16:00 Legend Double Dagger 12.4 3.1 53 10 22 64.4 96.98     Mostly Cloudy
17:00 Legend Double Dagger 12.1 2.6 52 10 29 64.4 96.95     LegendNANA
18:00 Legend Double Dagger 11.6 2.7 54 8 22 64.4 96.94     LegendNANA
19:00 Legend Double Dagger 10.5 2.9 59 9 17 64.4 96.91     Mostly Cloudy
20:00 Legend Double Dagger 10.9 2.8 57 9 21 64.4 96.92     LegendNANA
21:00 Legend Double Dagger 10.6 2.7 58 10 16 64.4 96.93     LegendNANA
22:00 Legend Double Dagger 10.2 3.1 61 10 20 64.4 96.95     Mostly Cloudy
23:00 Legend Double Dagger 10.5 3.1 60 12 19 64.4 96.95     LegendNANA

Notes on Data Quality.

Legend

  • E = Estimated
  • M = Missing
  • NA = Not Available
  • ‡ = Partner data that is not subject to review by the National Climate Archives
Date modified: